Terminal Aerodrome Forecast
Issued by NWS

Home | Current Version | Previous Version | Graphics & Text | Print | Product List | Glossary On
Versions: 1 2 3 4 5 6 7 8 9 10 11 12 13 14 15 16 17
000
FTUS43 KTOP 260255 AAA
TAFMHK
TAF AMD
KMHK 260255Z 2603/2624 14005KT P6SM SCT060 BKN100
     FM260900 11005KT P6SM -SHRA VCTS BKN090CB
     FM261400 19008KT P6SM SCT060=

USA.gov is the U.S. government's official web portal to all federal, state and local government web resources and services.